Flag for Germany Weather past 2 weeks in Oberhausen, North Rhine-Westphalia, Germany

Now
64 °F

Partly sunny.


Feels Like: 64 °F
Forecast: 54 / 64 °F
Wind: 17 mph from Southwest

Location: Duesseldorf

Current Time: Aug 30, 2014 at 2:30:59 PM

Latest Report: Aug 30, 2014 at 1:50 PM


Visibility: N/A

Pressure: 30.01 "Hg

Humidity: 78%

Dew point: 57 °F

Location of OberhausenLocation

Historic Weather in Oberhausen — Graph

°F

Oberhausen temperature yesterday

Maximum temperature yesterday: 66 °F (at 12:20 AM)
Minimum temperature yesterday: 57 °F (at 6:20 AM)
Average temperature yesterday: 63 °F

Past Weeks' High & Low Weather Summary

 TemperatureHumidityPressure
High73 °F (Aug 28, 2:20 PM)100% (Aug 26, 8:20 AM)30.09 "Hg (Aug 26, 8:20 AM)
Low46 °F (Aug 20, 2:50 AM)40% (Aug 27, 4:20 PM)29.62 "Hg (Aug 26, 4:50 AM)
Average59 °F77%29.93 "Hg
* Reported Aug 15 1:20 PM — Aug 30 1:20 PM, Oberhausen, Weather by CustomWeather, © 2014

Note: Actual official high and low records may vary slightly from our data, if they occured in-between our weather recording intervals... More about our weather records

Advertising

Oberhausen weather history for previous 24 hours

 ConditionsComfort  
Time TempWeatherWind HumidityBarometerVisibility
1:20 PM
Aug 30
64 °FPartly sunny.15 mph78%30.01 "HgN/A
12:50 PM64 °FPartly sunny.15 mph78%30.01 "HgN/A
12:20 PM63 °FBroken clouds.12 mph83%30.01 "HgN/A
11:50 AM63 °FPartly sunny.15 mph77%30.01 "HgN/A
11:20 AM63 °FPartly sunny.15 mph77%30.01 "HgN/A
10:50 AM63 °FPartly sunny.16 mph77%30.01 "HgN/A
10:20 AM63 °FPartly sunny.13 mph77%30.01 "HgN/A
9:50 AM63 °FLight rain. Partly sunny.12 mph77%30.01 "HgN/A
9:20 AM63 °FPartly sunny.13 mph73%30.01 "HgN/A
8:50 AM63 °FPartly sunny.12 mph73%30.01 "HgN/A
8:20 AM63 °FBroken clouds.13 mph73%30.01 "HgN/A
7:50 AM63 °FPartly sunny.12 mph73%30.01 "HgN/A
7:20 AM61 °FClear.12 mph77%30.01 "Hg10 mi
6:50 AM63 °FPassing clouds.12 mph73%30.01 "HgN/A
6:20 AM63 °FPassing clouds.13 mph73%30.01 "HgN/A
5:50 AM61 °FPassing clouds.10 mph77%30.01 "HgN/A
5:20 AM61 °FPassing clouds.12 mph77%30.01 "HgN/A
4:50 AM61 °FPassing clouds.10 mph77%30.01 "HgN/A
4:20 AM61 °FClear.12 mph77%30.01 "Hg10 mi
3:50 AM61 °FClear.13 mph77%30.01 "Hg10 mi
3:20 AM61 °FClear.12 mph77%30.01 "Hg10 mi
2:50 AM61 °FClear.10 mph77%30.01 "Hg10 mi
2:20 AM61 °FClear.10 mph83%30.01 "Hg10 mi
1:50 AM59 °FClear.9 mph82%30.04 "Hg10 mi
1:20 AM59 °FClear.9 mph82%30.01 "Hg10 mi
12:50 AM59 °FClear.10 mph82%30.01 "Hg10 mi
12:20 AM61 °FClear.10 mph77%30.01 "Hg10 mi
11:50 PM
Aug 29
63 °FPassing clouds.8 mph77%30.01 "HgN/A
11:20 PM63 °FPartly cloudy.8 mph77%30.01 "HgN/A
9:20 PM63 °FSunny.6 mph77%30.01 "Hg10 mi
8:50 PM61 °FSunny.5 mph77%30.01 "Hg10 mi
8:20 PM63 °FSunny.7 mph77%29.98 "Hg10 mi
7:50 PM64 °FSunny.7 mph73%29.98 "Hg10 mi
7:20 PM64 °FPartly sunny.6 mph73%29.98 "HgN/A
6:50 PM66 °FPartly sunny.8 mph68%29.98 "HgN/A
6:20 PM66 °FPartly sunny.9 mph64%29.98 "HgN/A
5:50 PM66 °FBroken clouds.8 mph68%29.98 "HgN/A
5:20 PM66 °FBroken clouds.8 mph64%30.01 "HgN/A
4:50 PM64 °FBroken clouds.6 mph73%30.01 "HgN/A
4:20 PM64 °FPartly sunny.9 mph73%30.01 "HgN/A
3:50 PM64 °FBroken clouds.13 mph73%30.01 "HgN/A
3:20 PM64 °FSprinkles. Broken clouds.10 mph73%30.01 "HgN/A
2:50 PM63 °FSprinkles. Broken clouds.8 mph83%30.01 "HgN/A
2:20 PM63 °FSprinkles. Broken clouds.10 mph83%30.01 "HgN/A
Weather by CustomWeather, © 2014

See weather overviewHow to use our weather pages